Vertical_Velocity
3 2 2 1 1 0 -1 2 6 9 10 3 -2 -3 -1 -1 -1 -1 -1 -2 -2 -2 -1 -1 -0 -0 -0 -1 -1 -1 -1 -3 -5 -6 -5 -4 -4 -3 -2 -1 -1 -1 -1 -1 -2 -2 -2 -3 -2 -2 -1 0 0 -0 -0 0 1 1 0 -0 -0 0 -0 -0 -0 -0 1 1 1 -0 -1 0 2 2 2 -1 -2 -1 -1 -1 -0 0 0 -1 -1 -1 -0 0 0 0 1 0 0 0 0 1 1 0 0 0 0 0 0
2 1 2 2 1 0 -1 -0 3 9 15 12 6 0 -3 -2 -2 -1 -1 -2 -2 -2 -1 -0 -0 -0 -0 -0 -1 -1 -3 -1 -1 -1 -4 -1 -2 -4 -2 -1 -1 -1 -1 -1 -1 -2 -2 -2 -2 -1 -1 -0 -0 -1 -1 0 1 1 1 1 1 0 0 -1 -1 -0 0 1 1 1 1 -0 0 1 1 -1 -2 -2 -1 -0 -0 0 0 -0 -1 -1 -1 -0 0 0 0 1 1 0 -0 -0 0 0 0 0 -0 -0 -0
2 1 2 2 1 1 0 -0 -1 2 9 15 9 1 -5 -3 -2 -1 -1 -1 -2 -2 -1 -0 -0 -0 -0 -0 -1 -1 -3 6 10 9 0 3 0 -3 -2 -1 -1 -1 -1 -1 -1 -1 -2 -1 -1 -1 -0 -0 -1 -1 -1 -1 0 1 1 1 0 0 0 -0 -0 -0 -0 1 1 1 1 1 1 1 1 0 -1 -1 0 -0 0 0 0 1 0 -1 -1 -0 -0 -1 -3 0 0 -0 -2 -2 -1 0 0 -0 -0 -0 -1
1 1 2 2 1 1 0 -1 -2 -3 -1 7 6 0 -5 -3 -1 -1 -1 -1 -1 -1 -1 -1 -0 -0 -1 -1 -1 -1 -2 8 10 6 -0 0 -1 -3 -1 -1 -1 -2 -1 -1 -1 -1 -2 -1 -1 0 1 -0 -1 -1 -1 -1 -0 0 0 0 0 0 -0 0 -0 -0 0 0 1 1 0 1 2 3 2 1 -1 -1 1 0 1 1 -0 0 1 1 -1 -0 -0 -1 -3 -1 -0 -1 -1 -1 -0 -0 -0 -0 -0 -1 -1
0 1 2 2 1 -0 -2 -4 -5 -5 -4 1 7 9 -2 -2 -1 -0 -1 -1 -1 -1 -1 -1 -0 -1 -1 -1 -1 -2 -2 4 4 0 -1 -2 -3 -3 -1 -1 -2 -2 -2 -1 -1 -1 -1 -1 -0 1 1 0 -1 -1 -1 -1 -0 0 -0 0 0 -0 -1 -0 -0 0 -0 0 0 1 -0 1 1 0 -1 -1 -1 -0 1 1 1 1 0 -1 -1 -1 -1 -1 -1 -1 -1 -1 -1 -0 -0 -0 -0 0 -0 -0 -0 -1 -1
1 1 2 2 1 -1 -3 2 3 -0 -6 0 10 14 4 1 -0 0 -0 -1 -1 -1 -1 -1 -0 -0 -1 -1 -1 -1 -2 -1 -0 -0 -1 -2 -2 -2 -1 -1 -2 -2 -2 -2 -2 -1 -1 -1 0 1 1 0 -1 -1 -1 -0 0 0 0 -0 -0 -1 -1 -0 -0 -1 -2 -0 0 0 0 0 -1 -2 -2 -2 -1 0 1 1 1 1 1 1 0 -0 -0 -1 -1 -0 -0 -0 -0 0 0 0 0 -0 -0 -0 -0 -1 -1
0 1 1 2 1 1 3 11 11 7 1 6 10 10 4 1 0 0 -0 -1 -1 -1 -1 -0 -0 -0 -1 -1 -1 -1 -1 -1 -1 -1 -1 -1 -1 -1 -1 -1 -1 -1 -1 -2 -2 -2 -1 -0 0 0 0 -0 -0 -1 -1 -0 -0 0 0 -0 -0 -1 -1 -0 -1 -2 -2 -1 -1 0 0 -0 -1 -1 -2 -2 -1 -0 -0 -0 -0 0 1 1 1 1 1 1 1 1 0 0 0 0 0 0 0 0 0 0 -0 -0 -0
-1 1 1 2 1 2 6 11 11 10 13 11 7 4 2 1 0 -0 -0 -0 -0 -1 -1 -0 0 0 -0 -1 -1 -1 -0 0 0 -0 -0 -0 -1 -1 -1 -1 -1 -1 -1 -1 -2 -2 -1 0 0 -0 -1 -1 -1 -1 -1 -0 0 0 0 -0 -1 -2 -2 -2 -2 -2 -2 -3 -2 -1 -0 -0 0 -0 -1 -1 -1 -0 -1 -1 -1 -1 -1 -0 -0 -0 0 -0 0 0 0 0 0 0 1 1 1 1 1 0 0 0 -0
-1 1 1 2 2 3 6 9 9 8 10 8 3 0 2 1 0 -0 -1 -0 -0 -0 -0 0 0 0 -0 -0 -1 -1 -0 0 0 0 0 -0 -0 -0 -0 -0 -0 -0 -0 -1 -1 -1 -1 -0 -0 -1 -1 -1 -1 -1 -1 -0 0 0 0 -0 -0 0 0 4 4 3 3 -2 -3 -2 -1 -0 0 0 0 0 0 -0 -1 -1 -1 -1 -1 -1 -0 0 0 0 -0 -1 -1 -0 0 1 1 1 0 0 1 1 1 1 0
2 0 0 1 2 4 7 9 7 5 4 3 1 0 1 0 -0 -1 -1 -0 0 0 -0 0 0 1 0 0 -1 -1 -0 0 1 1 0 0 0 0 0 0 0 -0 -0 -1 -1 -1 -1 -1 -1 -1 -1 -1 -1 -0 -0 0 0 0 0 -0 0 1 1 4 5 5 5 3 -0 -3 -3 -1 -0 -0 0 1 0 -1 -1 -1 -1 -1 -0 -0 0 -0 -0 -0 -0 -0 -0 -0 -0 0 0 0 0 1 1 1 1 1 0
5 -1 -1 0 0 1 6 5 5 4 3 0 -1 -0 0 -0 -0 -0 -1 -0 0 0 0 0 0 1 1 0 -0 -1 -1 0 1 1 1 0 0 1 1 0 0 -0 -0 -1 -1 -1 -1 -1 -1 -0 0 0 0 0 0 0 0 0 0 -0 -0 -0 -1 0 3 6 6 5 2 -3 -5 -2 -1 -1 -0 0 -0 -1 -1 -1 -0 0 -0 -0 -1 -1 -0 -1 -1 -1 -1 -1 -0 -0 -0 -0 0 0 0 0 1 1 0
4 -1 -1 -1 -2 -1 4 1 3 5 1 -1 -1 -1 -0 0 0 0 0 0 0 0 0 0 1 1 1 1 -0 -1 -1 0 1 1 1 1 1 1 1 0 -0 -1 -1 -1 -1 -1 -1 -0 0 1 0 0 0 0 1 1 0 0 -0 -0 0 1 0 1 6 11 14 7 3 -1 -7 -3 -1 -2 -2 -2 -1 -2 -2 -1 -1 -1 -1 -0 -0 -1 -1 -1 -1 -1 -1 -1 -1 -1 -1 -1 -1 -0 0 0 0 0 0
-0 -0 -1 -0 -1 2 8 1 4 7 -1 -1 -1 -1 0 1 1 1 1 0 0 0 1 1 1 1 1 1 0 -1 -1 0 1 1 1 1 1 1 0 0 -0 -1 -1 -1 -1 -1 -1 -0 0 0 -1 -1 -0 1 1 1 0 0 -1 -0 1 2 1 2 9 18 22 10 4 2 -1 -1 -1 -1 -1 -1 1 2 -1 -1 -1 -1 -1 -1 -1 -1 -1 -1 -1 -1 -1 -1 -1 -1 -1 -1 -1 -1 -0 -0 0 0 0
-1 0 1 3 6 10 14 6 6 6 -0 0 0 0 1 1 1 1 0 0 0 0 1 1 1 1 1 0 -0 -1 -1 -0 0 0 1 1 1 0 0 0 -0 -1 -1 -1 -1 -1 -1 -0 -0 -1 -1 -0 1 1 1 1 1 1 -1 -1 1 2 1 1 7 17 26 16 10 6 6 0 -2 -1 1 1 3 4 2 0 -0 -0 -1 -1 -1 -1 -1 -1 -1 -1 -1 -1 -1 -1 -1 -1 -1 -1 -1 -0 -0 -0 0
1 0 1 4 9 13 15 10 8 5 0 1 1 1 1 1 0 -0 -1 -0 0 1 1 1 1 1 1 -0 -1 -1 -0 -0 -0 -0 0 1 0 0 0 0 -0 -1 -1 -1 -1 -1 -1 -1 -1 -1 -1 0 1 1 1 1 1 2 1 0 1 2 2 1 3 8 17 17 14 10 8 1 -1 -2 -1 -0 -0 -1 -1 -0 -0 -0 -0 -1 -1 -1 -0 -0 -0 -0 -0 -0 -1 -1 -1 -0 -1 -1 -1 -1 -1 -1 -0
2 1 -1 1 4 8 12 11 8 5 -0 1 1 0 1 0 -0 -1 -1 -1 0 1 1 1 1 1 -0 -1 -1 -1 -0 -0 -0 -0 0 0 0 -0 -0 0 -0 -0 -1 -1 -1 -1 -1 -2 -1 -1 -1 0 1 1 0 0 1 1 1 1 1 2 3 2 2 2 4 7 7 6 2 -1 -3 -2 -2 -1 -1 -1 -1 -0 -0 -0 -0 -0 -0 -1 -0 -0 -0 -0 -0 -0 -0 -1 -1 -1 -1 -1 -1 -1 -1 -1 -1
2 1 -1 -2 -1 1 6 7 7 5 1 1 1 0 0 0 -0 -1 -1 -1 -0 0 1 1 1 0 -1 -1 -0 -0 -0 -1 -1 -1 -0 -0 -0 -0 -1 -0 -0 -0 -1 -1 -1 -1 -1 -2 -2 -1 -1 -0 0 0 0 0 0 -0 -1 -1 -0 1 1 1 1 0 -1 -0 0 -0 -2 -3 -3 -2 -2 -1 -1 -1 -0 -0 -0 -0 -0 -0 -0 -0 -0 -0 -0 -0 -1 -0 -0 -0 -0 -0 -0 -1 -1 -1 -1 -1 -1
1 2 0 0 -0 0 2 4 5 5 2 1 1 0 0 0 -0 -1 -1 -1 -0 0 1 0 -0 -1 -1 -0 0 0 -1 -1 -2 -2 -1 -1 -1 -1 -1 -1 -0 -0 -0 -0 -1 -1 -1 -2 -2 -1 -1 -1 -0 0 0 0 0 -1 -2 -3 -2 -1 -1 -2 -2 -2 -2 -1 -0 -0 -0 -1 -2 -2 -1 -1 -1 -0 -0 -0 -0 -0 -0 -0 -0 -0 -0 -0 -0 -0 -0 -0 -0 -0 -0 -0 -0 -0 -1 -1 -1 -1 -1
1 2 2 8 7 4 4 6 4 2 2 2 1 1 1 1 0 -0 -1 -0 0 0 0 0 -0 -1 -1 0 1 1 -0 -1 -1 -2 -1 -1 -1 -1 -1 -1 -1 -0 -0 -0 -0 -1 -1 -1 -1 -1 -1 -1 -0 0 1 1 0 -0 -2 -2 -2 -2 -2 -3 -3 -3 -2 -1 -0 0 0 -0 -1 -1 -1 -0 -0 -0 -0 -0 -0 0 0 0 0 0 0 0 0 0 0 0 0 0 0 0 -0 -0 -1 -1 -1 -0 -0
1 2 3 12 11 6 5 7 4 1 3 4 3 2 2 2 1 1 0 1 1 1 1 0 -0 -0 -0 0 0 0 0 -1 -1 -1 -1 -1 -1 -1 -1 -1 -1 -1 -1 -1 -1 -1 -1 -1 -1 -1 -1 -0 0 0 1 1 1 -0 -2 -1 -1 -0 -1 -1 -2 -2 -2 -1 -0 -0 -0 -1 -0 -0 -1 -0 -0 0 0 0 0 1 1 1 1 1 1 0 0 0 1 1 1 1 1 1 1 0 -0 -1 -1 -0 -0
1 1 1 9 8 4 1 5 5 3 4 4 3 2 2 2 2 1 1 1 1 1 1 1 0 0 -0 -0 -0 -0 -0 -0 -1 -1 -1 -0 -0 -1 -1 -1 -1 -1 -1 -1 -1 -1 -1 -1 -1 -1 -0 0 0 0 0 1 1 0 -1 -1 -1 1 1 0 0 0 0 0 0 0 -0 -1 -1 -0 -0 -0 0 0 0 0 1 1 1 1 1 1 0 0 0 0 0 1 1 1 1 1 1 1 -0 -1 -1 -1 -0
0 -0 -0 2 1 -1 -2 6 7 4 1 2 2 1 1 1 1 1 1 1 1 1 1 0 0 0 -0 -1 -1 -1 -1 -0 -0 -1 -1 -1 -0 -0 -1 -1 -1 -1 -1 -1 -1 -1 -0 -1 -1 -0 -0 0 0 0 0 0 1 1 1 -1 -1 1 1 1 1 1 1 1 1 1 -0 -1 -1 -1 -1 -0 0 0 -0 0 0 0 0 0 0 0 0 -0 -0 -0 -0 -0 0 1 1 1 1 0 -0 -1 -1 -0 -0
0 -0 -1 -2 -3 -4 -3 9 9 4 -1 -1 -1 -0 0 0 0 0 1 1 1 0 -1 -1 -0 -0 -1 -2 -2 -2 -1 -1 -0 -0 -1 -1 -1 -1 -1 -0 -1 -1 -1 -1 -1 -1 -1 -1 -0 -0 0 0 0 0 -0 0 0 1 2 -0 -0 0 1 1 0 0 1 1 1 1 0 -0 -1 -1 -1 -0 0 0 -0 0 0 -0 -0 -0 0 0 0 0 -0 -1 -1 -1 -1 -0 1 1 1 0 -0 -0 -0 -0 -0
-0 -1 -2 -3 -3 -3 -1 10 10 4 -1 -1 -1 0 0 -0 -0 -0 0 1 0 -0 -1 -1 -1 -1 -1 -1 -2 -2 -1 -0 0 0 -0 -1 -1 -1 -1 -0 -0 -0 -1 -1 -1 -0 -0 -0 -0 0 0 0 0 0 0 0 0 1 1 0 0 1 3 0 -1 -0 1 1 1 1 0 0 -0 -0 -0 -0 0 0 -0 0 0 0 -0 -0 -0 -0 0 0 -0 -1 -2 -2 -2 -1 0 1 1 0 -1 0 0 0 0
-1 -2 -2 -3 -3 -1 7 10 7 3 -0 -2 -1 1 1 -0 -1 -0 0 0 0 0 -0 -1 -1 -1 -1 -1 -1 -1 -1 0 1 1 1 0 -1 -1 -1 -1 -1 -1 -1 -0 -0 -0 -0 -0 0 0 0 0 0 0 0 0 0 1 1 1 -0 0 6 3 1 0 2 2 1 1 1 0 0 0 0 0 -0 -0 -0 0 0 0 0 -0 -0 -0 0 -1 -1 -1 -0 0 0 -0 -0 0 1 0 -2 0 1 0 0
-1 -2 -2 -3 -3 1 14 10 5 1 0 -2 -1 1 2 -0 -1 -0 0 0 0 0 -0 -0 -0 -0 -0 -0 -0 0 -0 0 1 1 1 1 0 -0 -1 -1 -1 -1 -1 -1 -0 -0 -0 -0 -0 0 0 0 0 0 0 0 0 1 1 1 0 0 5 6 6 5 2 2 2 1 1 0 0 0 0 0 -0 -0 -1 -1 -0 1 3 3 1 -1 -0 -1 -2 -2 -1 1 1 0 -0 -0 0 -0 -2 -0 0 -0 -1
-1 -2 -2 -2 -2 1 10 13 7 0 -1 -0 1 2 2 -0 -1 -0 0 0 0 1 0 0 0 0 0 0 0 0 0 0 0 1 1 1 0 0 0 -0 -1 -1 -1 -1 -1 -1 -0 -1 -1 -0 -0 0 0 0 0 0 0 0 0 1 1 0 0 4 6 6 1 2 1 0 -0 -0 -0 -1 -2 -1 -1 -1 -1 -2 -0 2 4 4 1 -2 -2 -2 -2 -2 -1 -0 0 0 -0 0 1 0 -0 -1 -0 -0 -1
-1 -2 -2 -1 -1 0 1 10 10 5 -2 -1 1 2 2 -0 -2 -2 -1 -0 0 1 1 0 0 0 0 1 1 1 0 0 0 1 1 1 1 0 1 0 0 -0 -1 -1 -1 -1 -1 -0 -1 -1 -1 -0 0 1 1 1 0 0 -0 0 1 0 -2 -0 2 3 1 1 0 -1 -1 -0 1 1 -3 -2 -2 -2 -3 -2 -2 -1 -1 -1 -1 -1 -1 0 -1 -3 -2 -1 -0 -0 -0 1 1 1 -1 -0 0 -0 -1
2 1 1 0 -0 -1 -2 1 5 7 2 1 0 1 1 -1 -2 -2 -2 -1 -0 1 1 0 0 0 0 0 0 0 0 0 0 0 1 1 1 1 1 1 0 -0 -0 -1 -1 -1 -1 -0 -0 -0 -1 -0 0 1 1 1 0 0 -0 -1 0 1 -0 -2 -1 -0 2 1 1 0 1 1 3 5 4 1 1 1 -5 -4 -4 -3 -3 -2 -1 2 6 5 4 1 -4 -2 -2 -0 4 1 -1 -1 -0 0 0 0 -0
7 9 10 8 3 -1 -2 -3 1 5 8 3 2 3 1 0 1 1 -2 -1 -0 0 1 1 1 1 0 0 0 0 0 0 0 0 1 1 1 1 1 0 0 0 0 0 0 0 -0 -0 -0 -0 -0 0 1 1 1 1 0 0 -1 -1 -1 -1 -1 -2 -2 1 4 3 2 1 0 1 3 6 9 5 7 8 2 2 3 2 -3 -2 0 4 9 14 16 11 -2 -2 -2 -0 5 2 -0 -1 -1 -0 -0 -0 -1
9 17 15 16 13 8 2 -0 1 3 6 4 4 5 4 5 7 6 -1 -1 -1 -1 -0 0 0 1 0 0 1 1 1 1 1 1 1 1 1 1 0 0 0 0 1 1 1 1 1 0 0 0 0 0 1 1 1 1 0 -0 -1 -3 -3 -3 -2 -2 1 4 6 3 1 1 1 0 0 0 1 2 4 5 4 12 18 17 2 -1 -2 -1 -1 1 -0 -3 -4 -3 -2 -1 -1 -0 0 -0 -2 -1 -0 -0 -1
12 21 15 13 14 16 16 12 7 3 2 0 0 0 -2 7 12 12 4 1 -1 -1 -1 -1 -0 0 0 1 1 2 2 1 1 1 1 1 1 0 -0 -0 0 0 1 1 2 2 2 1 1 1 1 1 1 1 1 1 0 -1 -2 -4 -4 -3 -1 1 2 5 10 7 4 2 0 0 0 -1 -2 -3 -4 -4 -3 -4 -2 0 -0 -1 -2 -2 -2 -4 -4 -4 -3 -3 -2 -2 -1 -1 -1 -1 -3 -2 -2 -2 -3
16 23 16 10 9 12 18 16 8 -0 -3 -2 -1 -2 -6 4 10 12 8 3 0 -0 0 0 1 1 2 2 2 2 2 2 2 1 1 1 0 -0 -0 0 0 1 1 1 2 2 2 2 1 1 0 1 1 2 2 2 1 0 -1 -3 -3 -2 -0 0 1 2 6 7 9 10 7 4 1 -1 -1 -2 -3 -3 -3 -3 -3 -3 -2 -2 -2 -2 -1 -2 -2 -2 -2 -2 -2 -2 -1 -1 -1 -1 -0 -2 -3 -3 -3
18 21 17 10 8 9 10 7 3 -1 -2 -2 -0 -0 -4 1 5 6 3 1 1 2 2 1 1 2 2 2 2 2 2 2 2 1 0 -0 -0 -0 0 1 1 1 1 1 1 1 1 1 0 -1 -0 1 2 2 3 3 3 2 1 0 -1 -1 0 0 0 -0 0 1 4 9 13 12 8 4 3 1 -1 -2 -2 -2 -2 -2 -0 -1 -2 -2 -1 -1 -1 -1 -2 -2 -2 -2 -2 -1 0 0 0 -1 -2 -3 -2
18 20 17 11 6 4 4 2 0 -0 -0 -0 0 -0 -3 3 7 7 -0 -0 1 1 1 1 1 0 1 1 1 2 1 0 -1 -1 -1 -1 -0 0 1 2 2 2 2 1 1 1 1 0 -1 -1 0 1 2 3 3 4 4 4 3 1 0 -0 -0 0 1 1 1 -1 -1 0 3 7 8 7 9 10 8 6 8 7 4 3 4 3 0 -1 0 4 6 6 3 1 -1 -2 -1 4 7 7 4 2 -1 -3 -2
17 17 15 11 5 1 1 0 0 0 0 -1 -1 -0 0 7 9 8 8 5 2 0 -0 0 -0 -1 -2 -1 0 1 -1 -4 -4 -3 -1 -1 0 2 3 3 2 2 2 2 2 2 2 1 0 1 2 2 2 3 3 4 3 3 1 1 0 0 -0 -0 1 2 4 3 2 -0 -0 -0 -0 -0 0 3 4 4 8 9 8 7 6 7 5 3 1 4 7 10 10 9 3 -2 -2 8 16 18 13 8 3 -0 1
14 11 9 9 6 3 3 2 3 3 1 -2 -2 -0 3 6 5 6 14 12 8 4 1 1 -0 -2 -5 -3 -2 -1 -3 -5 -4 -2 1 1 2 3 4 2 1 1 2 2 3 3 3 3 3 4 5 4 3 3 3 3 3 2 0 1 1 0 0 0 1 2 5 9 9 6 1 -2 -4 -5 -5 -5 -5 -5 -3 -1 1 1 1 1 0 -1 -1 -2 -2 1 6 9 5 -1 -3 -0 1 2 5 3 3 4 8
10 6 4 5 6 6 8 7 8 6 0 -2 -2 -1 1 3 3 6 12 13 13 10 4 3 1 -2 -4 -2 -0 0 -0 -0 0 2 4 4 4 5 4 2 -0 -1 -1 1 3 4 3 4 6 7 6 6 5 5 4 4 4 3 2 6 4 2 -0 1 1 2 4 8 9 7 1 -2 -4 -4 -4 -3 -3 -3 -3 -3 -3 -2 -2 -3 -3 -2 -2 -2 -2 -2 -1 2 3 1 -1 -1 -1 -1 -0 -1 -0 2 7
7 5 4 3 3 4 9 10 11 9 1 -1 -1 -1 -1 -1 0 3 9 9 9 7 3 3 1 -1 -0 1 3 5 6 7 7 7 6 6 5 3 -1 -1 -1 -2 -3 -1 1 3 2 4 6 7 7 7 8 8 7 6 6 6 7 11 10 6 1 0 2 3 5 2 0 -1 -1 0 0 0 -0 -1 -1 -1 -0 -0 -0 -1 -1 -1 -1 -1 -0 0 -0 -0 -1 -0 -0 -0 -0 -0 -1 -1 -1 -0 -0 0 1
6 4 4 2 -1 -0 7 11 12 9 2 0 -1 -1 -1 -3 -2 1 4 1 1 2 2 3 1 -0 4 4 5 7 9 11 12 11 10 9 4 -2 -8 -4 -2 -1 -1 -0 1 1 2 3 3 3 5 9 10 9 7 7 8 9 11 10 11 10 6 2 1 1 1 -3 -4 -2 2 3 3 2 2 1 0 -1 -1 -1 -1 -1 -1 -0 1 1 2 2 1 1 1 1 0 0 0 -0 -1 -1 -0 -0 0 0 -0
5 5 7 1 -2 1 11 14 12 9 7 3 1 1 1 0 0 1 1 -4 -3 1 4 1 0 1 5 6 6 6 9 9 10 12 12 9 3 -2 -3 0 0 -1 -1 -1 -1 1 2 3 1 0 5 13 13 8 1 4 8 11 11 8 8 9 8 5 1 -1 -0 -1 -0 2 4 5 3 1 1 4 2 0 -2 -2 -2 -1 -1 0 1 1 2 2 2 1 1 1 1 0 0 -0 -1 -0 -0 1 1 1 -1
6 13 16 5 2 7 18 17 14 12 12 5 3 3 4 3 2 1 -1 -4 -2 3 4 -4 -3 1 4 5 4 2 2 3 7 11 9 6 3 2 8 6 1 -4 -7 -9 -6 -2 3 4 3 3 6 12 8 1 -0 7 13 15 11 8 6 6 7 6 6 6 6 3 3 3 3 3 2 1 -0 3 4 3 -1 -2 -2 -1 -1 -0 0 1 1 0 0 0 -1 -0 -0 -0 0 -1 -1 -1 -0 0 1 1 -0
2 13 21 15 13 15 21 19 15 12 10 5 3 3 3 2 1 -0 -2 -2 1 4 4 -4 -5 -3 1 1 -2 -4 -7 -3 2 6 5 4 3 5 12 5 -2 -7 -6 -7 -4 1 6 6 6 6 5 8 5 4 12 21 24 22 13 9 6 5 6 6 8 10 10 5 3 2 2 1 1 2 1 2 5 5 -1 -1 -2 -1 -1 -0 -0 -0 -1 -1 -1 -1 -1 -1 -1 -1 -1 -1 -1 -1 -1 -0 1 2 1
-9 0 17 18 18 18 21 22 16 9 4 3 3 2 2 2 1 -1 -2 -0 2 3 3 -0 -3 -4 -3 -5 -8 -10 -11 -5 -2 -0 -1 3 6 9 15 3 -6 -8 -1 -1 1 5 10 11 9 5 1 3 6 12 26 34 30 21 13 10 6 3 4 6 7 9 10 6 4 3 3 2 2 3 3 1 4 6 2 -0 -1 -1 -1 -1 -1 -1 -1 -1 -1 -0 0 0 0 0 -1 1 1 1 1 -1 0 2 3
-14 -12 6 16 17 17 22 29 22 9 -2 1 2 3 2 3 2 1 -1 -1 -0 -1 -1 -1 -2 -4 -5 -9 -13 -14 -8 -0 -1 -4 -6 1 7 13 18 4 -4 -5 -2 -2 0 5 10 15 14 9 2 4 10 19 32 32 24 15 13 10 5 2 2 3 4 5 7 6 4 3 3 2 2 2 2 0 2 5 5 2 -0 -1 -1 -0 0 0 1 1 0 -0 1 0 1 1 -0 -0 1 1 -0 2 6 8 7
-9 -15 -5 9 14 15 20 27 22 12 0 -0 2 4 4 4 4 4 2 -0 -3 -6 -9 -7 -5 -4 -2 -7 -16 -20 -11 -0 -0 -4 -5 -2 2 7 17 8 3 -1 -2 -3 -0 4 7 12 15 14 7 10 15 23 30 23 16 12 11 7 3 -0 -0 -1 -0 1 2 3 3 2 1 0 -0 -1 -1 -1 -0 2 6 3 1 -0 1 3 3 3 2 1 -1 -2 -2 -3 -2 -1 -4 -4 -3 -2 -2 3 8 9 5
-2 -10 -6 1 5 7 12 14 12 8 6 4 5 7 8 7 7 6 4 -1 -6 -10 -14 -14 -11 -7 -2 -3 -13 -21 -16 -8 -6 -5 -2 -1 -1 1 7 8 7 5 3 1 3 6 7 6 10 13 11 12 16 21 22 14 10 8 8 4 1 -1 -2 -2 -2 -1 -0 -0 0 0 -0 -1 -1 -2 -1 -1 -1 -0 3 3 2 2 4 3 2 1 -1 -2 -2 -2 -2 -2 -2 -3 -7 -5 -1 1 -1 -2 -2 -3 -3
1 -3 -3 -1 -0 0 3 1 -1 0 4 7 8 9 11 10 9 6 -0 -6 -10 -13 -13 -12 -12 -11 -8 -4 -9 -16 -17 -10 -6 -3 2 4 4 2 0 5 8 9 11 10 7 6 8 7 8 11 14 16 19 20 16 7 4 4 4 3 1 -1 -1 -1 -1 -1 -0 -0 -0 -0 -0 -0 -0 -0 -0 0 -0 -0 1 1 1 1 3 2 0 -1 -2 -1 1 3 4 1 -2 -3 -2 3 4 3 -3 -5 -7 -7 -5
1 1 2 2 0 -1 -1 -3 -5 -5 -2 2 5 7 7 7 6 3 -4 -11 -15 -15 -11 -5 -3 -4 -10 -10 -10 -12 -16 -10 -2 5 8 7 6 5 3 6 9 11 12 9 7 6 8 9 10 11 12 14 16 15 11 3 1 1 3 2 1 -0 -1 -1 -1 -1 0 0 0 0 0 0 -0 0 0 1 1 1 2 -1 -2 -1 1 0 -1 -0 4 8 9 8 5 0 -2 -1 4 8 8 4 -1 -4 -6 -7 -6
-0 2 4 5 6 6 5 1 -2 -4 -5 -4 -1 3 5 4 3 0 -5 -9 -11 -10 -6 1 5 6 2 -7 -11 -12 -14 -11 -2 7 10 6 2 -0 0 1 0 -0 0 -1 2 6 7 8 9 10 11 10 9 8 6 2 0 0 2 2 1 -0 -1 -1 -1 -1 -0 0 1 1 1 -0 -0 -0 -0 1 1 2 2 -1 1 4 4 -0 -2 -2 3 7 8 7 4 1 -2 -3 1 6 8 7 2 0 -1 -2 -3
-3 1 3 4 5 8 9 6 3 1 -1 -5 -7 -5 3 7 6 3 -0 -4 -4 -3 -1 1 4 6 7 4 -1 -7 -11 -9 -5 -2 -6 -6 -4 -2 -1 -2 -6 -8 -7 -3 1 5 7 6 6 7 8 6 4 3 3 2 2 2 2 2 1 1 1 -0 -0 -0 0 0 0 1 1 1 1 0 -0 0 1 1 0 -0 3 7 5 1 -1 -2 -2 -2 -0 2 5 3 -1 -4 -4 0 6 9 6 4 2 1 -1
-6 -1 4 4 4 3 4 6 6 4 1 0 -4 -7 -8 1 5 7 7 5 3 3 4 1 1 2 4 5 4 1 -5 -7 -8 -10 -15 -15 -10 -3 2 3 -0 -4 -4 -0 2 2 3 3 3 3 4 3 2 2 2 2 3 3 3 2 2 2 2 1 1 2 2 1 1 0 -0 0 0 0 -1 -1 -0 -0 -0 -2 0 4 4 2 1 -0 -1 -2 -1 1 3 1 -1 -3 -3 -3 1 4 4 1 1 1 1
-10 -6 2 6 7 5 4 6 8 8 6 5 4 1 -5 -7 -5 1 7 10 11 10 10 7 4 1 2 2 2 2 -1 -4 -6 -8 -9 -11 -7 -2 2 4 3 1 -1 -1 -0 0 0 1 2 3 3 2 2 2 2 1 2 2 2 2 2 2 2 1 2 4 4 3 2 1 -0 -1 -1 -1 -2 -1 -0 -1 -2 -4 -4 -2 -1 -0 0 0 1 1 2 2 -1 -2 -0 2 1 -1 -1 -2 -4 -4 -2 0 1
-13 -11 -6 1 3 2 0 -1 1 5 10 11 11 9 7 -1 -5 -4 1 6 10 12 13 15 12 6 3 2 2 2 3 1 1 3 6 2 0 1 1 -1 -3 -4 -2 -1 1 2 0 0 1 3 2 2 2 2 2 1 1 1 0 0 1 2 2 1 1 3 4 3 3 3 2 2 -0 -1 1 5 6 4 -1 -4 -5 -6 -4 -3 -3 -1 0 1 1 1 -2 -3 3 8 6 6 4 1 -1 0 1 2 0
-17 -18 -15 -9 -6 -6 -9 -9 -9 -7 -4 4 8 10 9 5 2 0 1 2 4 6 7 11 12 10 5 3 1 -0 -0 3 6 8 8 5 2 -1 -2 -2 -2 0 2 -1 -1 0 2 -1 0 3 2 2 2 2 2 1 1 1 0 -0 1 1 1 -0 -0 1 2 2 3 4 4 4 1 -0 3 6 6 5 4 2 0 -1 -3 -4 -3 -2 -1 -0 0 -0 -3 -1 5 9 9 9 8 6 4 3 2 1 0
-14 -20 -22 -15 -11 -10 -10 -8 -6 -6 -6 -3 -2 -1 -1 -1 -0 1 1 1 2 2 3 5 6 6 6 5 3 0 -2 0 2 3 2 1 -0 -1 -2 -1 -1 -2 -2 -3 -2 -1 -0 -0 1 3 3 2 1 1 2 1 1 1 -0 -0 0 0 -0 -2 -2 -1 1 2 3 3 3 2 0 -1 0 1 0 -1 -2 2 5 4 -1 -3 -3 -1 -1 -0 -0 -0 -1 0 5 8 7 5 3 2 2 1 0 -0 1
-3 -9 -16 -15 -9 -5 -5 -6 -5 -4 -4 -5 -5 -7 -8 -7 -6 -4 -2 -0 1 2 3 3 3 4 4 4 3 2 -0 -0 -0 1 1 0 -1 -1 -0 -1 -2 -3 -3 -3 -0 1 -0 2 1 -0 1 1 0 1 2 2 2 1 0 -0 0 0 -0 -2 -2 -2 -1 -0 0 0 -0 -1 -1 -2 -2 -3 -3 -3 -4 -3 -1 -1 -4 -2 -1 -0 -0 -1 -0 0 1 1 2 3 2 1 1 1 2 0 -1 -1 2
5 4 -1 -6 -8 -8 -9 -11 -10 -7 -5 -4 -4 -5 -6 -7 -6 -4 -2 1 2 2 2 1 1 0 -0 0 0 -0 -1 -1 -1 -1 -0 0 -0 -0 1 0 -1 -1 -1 1 3 4 2 3 1 0 1 -1 -0 1 2 2 2 2 1 0 0 1 -1 -2 -3 -3 -2 -2 -2 -2 -2 -2 -2 -1 -1 -1 -1 -2 -3 -2 -3 -3 -3 -1 0 -0 -0 -0 -0 0 1 1 0 -1 -1 -0 2 4 3 1 -0 -0 2
8 10 9 4 -1 -7 -13 -15 -15 -14 -14 -10 -5 -1 1 -2 -3 -2 1 3 3 3 1 -1 -2 -3 -3 -2 -2 -2 -2 -2 -1 -1 -0 1 0 0 1 3 4 4 3 3 3 3 3 1 -0 -1 -1 -3 -2 -0 1 1 1 1 1 1 0 -0 -2 -2 -3 -3 -2 -2 -1 -1 0 2 3 4 4 4 3 2 1 1 -0 -2 -2 -0 -0 -1 -1 -1 -1 -0 1 1 -1 -2 -1 2 3 3 2 2 0 -1 -0
9 10 10 7 2 -4 -12 -15 -16 -18 -22 -21 -14 -4 6 6 4 3 3 4 3 2 -1 -3 -3 -4 -3 -3 -2 -2 -1 -1 -1 -1 -0 0 -0 0 2 3 3 3 3 3 3 3 3 1 -0 -1 -2 -4 -5 -3 -1 -0 1 1 1 1 1 0 -2 -3 -3 -2 -2 -1 -0 0 1 3 4 5 4 2 -0 -1 -1 1 -0 -1 -2 -1 -1 -2 -3 -2 -0 2 3 1 -1 -1 1 2 1 0 -0 1 1 1 0
8 8 6 4 1 -3 -8 -11 -12 -15 -20 -24 -22 -14 -1 7 10 9 7 4 2 0 -2 -3 -3 -3 -2 -2 -1 -1 -0 0 -0 -1 -1 -0 -0 -0 2 3 3 2 2 2 2 1 1 0 0 0 -0 -1 -3 -4 -3 -1 0 1 2 1 1 0 -1 -2 -2 -1 -1 -1 -1 -2 -2 -1 -0 -0 -0 -2 -3 -4 -3 -2 -1 -1 -1 -1 -1 -2 -2 1 3 5 6 3 1 1 3 2 1 0 -1 -1 -1 0 1
Height
1513 1513 1514 1515 1515 1517 1518 1520 1521 1522 1523 1523 1523 1524 1525 1525 1525 1526 1526 1527 1527 1528 1528 1529 1530 1530 1531 1532 1532 1533 1534 1534 1535 1535 1536 1537 1538 1538 1539 1540 1540 1540 1541 1541 1542 1542 1543 1543 1543 1544 1544 1545 1545 1545 1546 1546 1546 1547 1547 1548 1548 1549 1549 1549 1550 1550 1550 1551 1552 1552 1553 1553 1553 1554 1554 1554 1555 1555 1555 1556 1556 1557 1557 1557 1557 1557 1558 1558 1558 1558 1558 1558 1559 1559 1559 1559 1560 1560 1560 1560 1560 1560 1561
1513 1513 1514 1515 1515 1516 1518 1519 1521 1523 1524 1523 1523 1523 1525 1525 1525 1526 1526 1527 1527 1528 1528 1529 1530 1530 1531 1532 1533 1533 1534 1535 1535 1536 1536 1537 1538 1539 1539 1540 1540 1541 1541 1542 1542 1543 1543 1544 1544 1544 1545 1545 1545 1546 1546 1546 1547 1547 1547 1548 1548 1549 1549 1550 1550 1550 1551 1551 1552 1553 1554 1554 1554 1555 1554 1555 1555 1555 1556 1556 1557 1557 1557 1557 1558 1558 1558 1558 1559 1559 1559 1559 1559 1560 1560 1560 1560 1560 1560 1560 1560 1561 1561
1513 1513 1514 1515 1515 1517 1518 1519 1520 1521 1523 1524 1523 1523 1525 1525 1525 1526 1526 1527 1527 1528 1529 1529 1530 1531 1531 1532 1533 1533 1534 1536 1537 1537 1537 1538 1538 1539 1540 1540 1540 1541 1542 1542 1542 1543 1544 1544 1545 1545 1545 1545 1546 1546 1546 1546 1547 1547 1548 1548 1549 1549 1550 1550 1551 1551 1551 1552 1552 1553 1554 1554 1555 1555 1555 1555 1555 1556 1556 1557 1557 1558 1558 1558 1559 1558 1558 1559 1559 1560 1560 1560 1560 1560 1560 1560 1560 1561 1561 1561 1561 1561 1561
1513 1513 1514 1515 1515 1517 1518 1519 1520 1521 1522 1523 1524 1524 1524 1525 1525 1526 1526 1527 1527 1528 1529 1529 1530 1531 1532 1532 1533 1534 1535 1536 1536 1536 1537 1538 1538 1539 1540 1540 1541 1541 1542 1542 1543 1543 1544 1544 1545 1545 1545 1546 1546 1546 1546 1546 1547 1547 1548 1548 1549 1549 1550 1550 1551 1551 1552 1552 1553 1553 1554 1555 1555 1556 1556 1556 1556 1556 1557 1557 1557 1558 1558 1559 1559 1559 1559 1559 1559 1560 1560 1560 1560 1560 1560 1560 1561 1561 1561 1561 1561 1561 1562
1512 1513 1514 1515 1515 1517 1518 1519 1520 1521 1522 1523 1524 1524 1524 1525 1525 1526 1526 1527 1527 1528 1529 1529 1530 1531 1532 1532 1533 1534 1535 1535 1536 1536 1537 1538 1538 1539 1540 1540 1541 1542 1542 1543 1543 1544 1544 1545 1545 1546 1546 1546 1546 1546 1546 1546 1547 1547 1548 1548 1549 1550 1550 1550 1551 1552 1552 1553 1553 1554 1554 1555 1556 1556 1556 1556 1556 1556 1557 1557 1558 1558 1558 1559 1559 1559 1559 1559 1560 1560 1560 1560 1560 1560 1560 1561 1561 1561 1561 1561 1562 1562 1562
1512 1513 1514 1515 1515 1517 1518 1519 1520 1521 1522 1523 1524 1524 1524 1525 1525 1526 1526 1527 1527 1528 1529 1530 1530 1531 1532 1532 1533 1534 1535 1535 1536 1536 1537 1538 1539 1540 1540 1541 1541 1542 1543 1543 1544 1544 1544 1545 1545 1546 1546 1546 1546 1546 1546 1546 1547 1547 1548 1548 1549 1550 1550 1551 1551 1552 1553 1553 1554 1554 1555 1555 1556 1556 1556 1556 1556 1557 1557 1558 1558 1558 1559 1559 1559 1559 1560 1560 1560 1560 1560 1560 1560 1561 1561 1561 1561 1561 1561 1562 1562 1562 1562
1512 1513 1514 1515 1516 1517 1518 1520 1520 1521 1522 1524 1524 1524 1523 1524 1525 1526 1526 1527 1527 1528 1529 1530 1530 1531 1532 1532 1533 1534 1535 1535 1536 1537 1538 1538 1539 1540 1540 1541 1542 1542 1543 1543 1544 1544 1545 1545 1546 1546 1546 1546 1546 1546 1546 1546 1546 1547 1548 1548 1549 1550 1550 1551 1552 1552 1553 1554 1554 1555 1555 1555 1556 1556 1556 1556 1557 1557 1557 1558 1558 1558 1559 1559 1559 1560 1560 1560 1560 1560 1560 1561 1561 1561 1561 1561 1562 1562 1562 1562 1562 1562 1562
1512 1513 1514 1515 1516 1517 1519 1520 1520 1521 1523 1524 1523 1523 1524 1525 1525 1526 1526 1527 1527 1528 1529 1530 1530 1531 1532 1532 1533 1534 1535 1535 1536 1537 1538 1539 1539 1540 1540 1541 1542 1542 1543 1543 1544 1544 1545 1545 1546 1546 1546 1546 1546 1546 1546 1546 1546 1547 1548 1548 1549 1550 1551 1551 1552 1553 1554 1554 1554 1555 1555 1555 1556 1556 1556 1556 1557 1557 1558 1558 1558 1559 1559 1559 1560 1560 1560 1560 1560 1560 1561 1561 1561 1561 1562 1562 1562 1562 1562 1562 1562 1563 1563
1512 1513 1514 1515 1516 1517 1518 1519 1520 1520 1521 1522 1522 1523 1524 1525 1525 1526 1526 1527 1527 1528 1529 1530 1530 1531 1532 1533 1533 1534 1535 1536 1536 1537 1538 1539 1539 1540 1541 1541 1542 1542 1543 1544 1544 1545 1545 1546 1546 1546 1546 1546 1546 1546 1546 1546 1547 1547 1547 1548 1549 1550 1551 1552 1552 1553 1554 1555 1555 1555 1555 1556 1556 1556 1556 1557 1557 1557 1558 1558 1559 1559 1559 1559 1560 1560 1560 1560 1560 1560 1561 1561 1561 1562 1562 1562 1562 1562 1562 1563 1563 1563 1563
1513 1513 1514 1515 1516 1517 1518 1519 1520 1520 1520 1521 1521 1522 1524 1525 1525 1526 1526 1527 1528 1528 1529 1530 1530 1531 1532 1533 1533 1534 1535 1536 1537 1537 1538 1539 1540 1540 1541 1541 1542 1543 1543 1544 1544 1545 1545 1546 1546 1546 1546 1546 1546 1547 1547 1547 1547 1547 1547 1548 1549 1550 1551 1551 1552 1553 1554 1555 1555 1555 1555 1556 1556 1556 1556 1557 1557 1557 1558 1558 1559 1559 1559 1560 1560 1560 1560 1560 1560 1561 1561 1561 1561 1562 1562 1562 1562 1562 1563 1563 1563 1563 1563
1513 1513 1514 1515 1516 1517 1518 1519 1519 1520 1520 1521 1521 1523 1524 1525 1525 1526 1526 1527 1528 1528 1529 1530 1530 1531 1532 1533 1534 1534 1535 1536 1537 1538 1538 1539 1540 1540 1541 1542 1542 1543 1543 1544 1544 1545 1545 1546 1546 1546 1546 1547 1547 1547 1547 1547 1547 1547 1548 1548 1549 1550 1551 1551 1551 1553 1554 1555 1555 1555 1555 1556 1556 1556 1556 1557 1557 1557 1558 1558 1559 1559 1559 1560 1560 1560 1560 1560 1561 1561 1561 1561 1561 1562 1562 1562 1562 1563 1563 1563 1563 1563 1563
1512 1513 1514 1515 1516 1517 1518 1519 1520 1520 1520 1521 1522 1523 1524 1525 1525 1526 1526 1527 1528 1528 1529 1530 1530 1531 1532 1533 1534 1534 1535 1536 1537 1538 1539 1539 1540 1541 1541 1542 1543 1543 1544 1544 1545 1545 1546 1546 1546 1546 1547 1547 1547 1548 1548 1548 1548 1548 1548 1549 1550 1550 1551 1551 1552 1553 1555 1555 1555 1555 1555 1556 1556 1556 1556 1557 1557 1557 1558 1558 1559 1559 1559 1560 1560 1560 1560 1560 1561 1561 1561 1561 1561 1562 1562 1562 1562 1563 1563 1563 1563 1563 1563
1512 1513 1514 1515 1516 1517 1518 1519 1520 1520 1520 1521 1522 1523 1524 1525 1525 1526 1526 1527 1528 1529 1529 1530 1530 1531 1532 1533 1534 1534 1535 1536 1537 1538 1539 1540 1540 1541 1542 1542 1543 1543 1544 1544 1545 1545 1546 1546 1546 1547 1547 1548 1548 1548 1548 1548 1548 1548 1549 1549 1550 1551 1551 1551 1552 1554 1556 1555 1555 1555 1555 1556 1557 1557 1557 1557 1558 1558 1558 1559 1559 1559 1560 1560 1560 1560 1560 1560 1560 1561 1561 1561 1561 1562 1562 1562 1562 1563 1563 1563 1563 1564 1564
1512 1513 1513 1514 1516 1517 1518 1519 1519 1520 1520 1521 1522 1523 1524 1525 1525 1526 1527 1527 1528 1529 1529 1530 1531 1531 1532 1533 1534 1534 1535 1536 1537 1538 1539 1540 1541 1541 1542 1543 1543 1544 1544 1545 1545 1545 1546 1546 1547 1547 1547 1548 1548 1549 1549 1549 1549 1549 1550 1550 1550 1551 1551 1551 1552 1554 1557 1556 1556 1555 1555 1556 1556 1557 1558 1558 1559 1559 1559 1559 1559 1559 1559 1560 1560 1560 1560 1560 1561 1561 1561 1561 1561 1562 1562 1562 1562 1563 1563 1563 1563 1564 1564
1512 1513 1513 1514 1515 1517 1518 1518 1519 1520 1520 1521 1522 1523 1524 1524 1525 1526 1527 1527 1528 1529 1530 1530 1531 1531 1532 1533 1534 1534 1535 1536 1537 1538 1539 1540 1541 1541 1542 1543 1543 1544 1544 1545 1545 1546 1546 1547 1547 1547 1548 1548 1549 1549 1550 1550 1550 1550 1550 1551 1551 1552 1552 1552 1552 1553 1555 1556 1556 1556 1556 1556 1556 1557 1558 1558 1558 1558 1559 1559 1559 1559 1559 1560 1560 1560 1560 1560 1561 1561 1561 1561 1561 1562 1562 1562 1562 1563 1563 1563 1563 1564 1564
1511 1513 1513 1514 1515 1516 1517 1518 1519 1520 1520 1521 1522 1523 1524 1525 1525 1526 1527 1527 1528 1529 1530 1530 1531 1532 1532 1533 1534 1535 1535 1536 1537 1538 1539 1540 1541 1542 1542 1543 1544 1544 1545 1545 1545 1546 1546 1547 1547 1548 1548 1549 1549 1550 1550 1550 1551 1551 1551 1551 1552 1553 1553 1553 1553 1554 1554 1555 1556 1556 1556 1556 1557 1557 1558 1558 1558 1558 1558 1558 1559 1559 1559 1560 1560 1560 1560 1560 1561 1561 1561 1561 1561 1562 1562 1562 1562 1562 1563 1563 1563 1563 1564
1511 1512 1513 1514 1515 1516 1517 1518 1519 1519 1520 1521 1522 1523 1524 1524 1525 1526 1526 1527 1528 1529 1530 1530 1531 1531 1532 1533 1534 1535 1536 1536 1537 1538 1539 1540 1541 1542 1542 1543 1544 1544 1545 1545 1546 1546 1547 1547 1548 1548 1549 1549 1550 1550 1550 1551 1551 1551 1552 1552 1553 1553 1554 1554 1555 1555 1555 1555 1556 1556 1556 1557 1557 1557 1558 1558 1558 1558 1559 1559 1559 1559 1559 1560 1560 1560 1560 1560 1561 1561 1561 1561 1562 1562 1562 1562 1562 1562 1563 1563 1563 1563 1564
1510 1512 1513 1514 1515 1516 1517 1517 1518 1519 1520 1521 1522 1523 1524 1524 1525 1525 1526 1527 1528 1529 1530 1530 1531 1531 1532 1533 1534 1535 1536 1536 1537 1538 1539 1540 1541 1541 1542 1543 1544 1545 1545 1545 1546 1546 1547 1547 1548 1548 1549 1549 1550 1550 1551 1551 1551 1552 1552 1552 1553 1554 1555 1555 1555 1556 1556 1556 1556 1556 1556 1557 1557 1558 1558 1558 1558 1559 1559 1559 1559 1559 1560 1560 1560 1560 1560 1561 1561 1561 1562 1562 1562 1562 1562 1562 1562 1563 1563 1563 1563 1564 1564
1510 1511 1513 1514 1515 1515 1516 1517 1518 1519 1520 1521 1522 1523 1524 1524 1525 1525 1526 1527 1528 1529 1529 1530 1531 1531 1532 1533 1534 1535 1536 1536 1537 1538 1539 1540 1540 1541 1542 1543 1544 1545 1545 1546 1546 1547 1547 1548 1548 1549 1549 1550 1550 1550 1551 1551 1552 1552 1552 1552 1553 1554 1555 1555 1555 1556 1556 1556 1556 1556 1556 1557 1557 1558 1558 1558 1559 1559 1559 1559 1560 1560 1560 1560 1560 1560 1561 1561 1561 1562 1562 1562 1562 1562 1562 1563 1563 1563 1563 1563 1563 1564 1564
1510 1511 1512 1513 1514 1515 1516 1517 1518 1519 1520 1521 1522 1523 1523 1524 1525 1525 1526 1527 1528 1529 1529 1530 1531 1532 1533 1534 1535 1535 1536 1536 1537 1538 1539 1540 1540 1541 1542 1543 1544 1545 1545 1546 1546 1547 1547 1548 1548 1549 1549 1550 1550 1550 1551 1551 1552 1552 1552 1552 1553 1554 1555 1555 1555 1555 1555 1556 1556 1556 1556 1557 1557 1558 1558 1559 1559 1559 1560 1560 1560 1560 1560 1560 1561 1561 1561 1561 1562 1562 1562 1563 1563 1563 1563 1563 1563 1563 1563 1563 1564 1564 1564
1509 1510 1511 1512 1513 1514 1515 1517 1517 1518 1519 1520 1521 1522 1523 1524 1524 1525 1526 1527 1528 1528 1529 1530 1531 1532 1533 1534 1535 1535 1536 1537 1537 1538 1539 1540 1540 1541 1542 1543 1544 1545 1545 1546 1546 1547 1548 1548 1549 1549 1550 1550 1550 1551 1551 1551 1552 1552 1552 1553 1553 1554 1554 1555 1555 1555 1555 1555 1555 1555 1556 1557 1557 1558 1558 1559 1559 1560 1560 1560 1560 1560 1561 1561 1561 1561 1562 1562 1562 1562 1563 1563 1563 1563 1563 1563 1563 1563 1563 1563 1564 1564 1564
1508 1510 1511 1512 1513 1514 1515 1516 1517 1517 1519 1520 1520 1521 1522 1523 1524 1525 1525 1526 1527 1528 1529 1530 1531 1532 1533 1534 1535 1535 1536 1537 1537 1538 1539 1540 1540 1541 1542 1543 1544 1545 1545 1546 1546 1547 1548 1548 1549 1549 1550 1550 1550 1551 1551 1551 1552 1552 1553 1553 1553 1554 1554 1555 1555 1555 1555 1555 1555 1556 1556 1557 1557 1558 1559 1559 1560 1560 1560 1560 1560 1561 1561 1561 1561 1562 1562 1562 1562 1563 1563 1563 1563 1563 1563 1564 1563 1563 1563 1563 1564 1564 1564
1508 1509 1510 1511 1512 1513 1514 1515 1516 1516 1518 1519 1520 1520 1521 1522 1523 1524 1525 1526 1527 1528 1529 1530 1530 1531 1532 1533 1534 1535 1536 1537 1538 1538 1539 1540 1540 1541 1542 1543 1544 1545 1545 1546 1546 1547 1548 1548 1549 1549 1550 1550 1550 1551 1551 1551 1552 1552 1553 1553 1553 1554 1555 1555 1555 1555 1555 1555 1556 1556 1556 1557 1557 1558 1559 1559 1560 1560 1560 1560 1561 1561 1561 1562 1562 1562 1562 1562 1562 1563 1563 1563 1563 1563 1564 1564 1563 1563 1563 1564 1564 1564 1565
1507 1508 1509 1510 1511 1513 1514 1515 1515 1515 1517 1518 1519 1520 1521 1522 1523 1524 1525 1525 1526 1527 1528 1529 1530 1531 1532 1533 1534 1535 1536 1537 1538 1539 1539 1540 1541 1541 1542 1543 1544 1545 1545 1546 1546 1547 1548 1548 1549 1549 1550 1550 1550 1551 1551 1551 1552 1552 1553 1553 1553 1554 1555 1555 1555 1556 1556 1556 1556 1556 1556 1557 1557 1558 1559 1559 1560 1560 1560 1561 1561 1561 1562 1562 1562 1562 1562 1563 1563 1563 1563 1563 1563 1564 1564 1564 1564 1564 1564 1564 1564 1564 1565
1506 1507 1508 1510 1511 1512 1513 1514 1515 1515 1516 1517 1518 1520 1520 1522 1523 1524 1524 1525 1526 1527 1528 1529 1530 1531 1532 1533 1534 1535 1536 1537 1538 1539 1540 1540 1541 1542 1542 1543 1544 1545 1545 1546 1546 1547 1548 1548 1549 1549 1550 1550 1550 1551 1551 1551 1552 1552 1553 1553 1553 1554 1555 1555 1555 1556 1556 1556 1556 1556 1557 1557 1558 1558 1559 1559 1560 1560 1560 1561 1561 1562 1562 1562 1562 1562 1563 1563 1563 1563 1563 1564 1564 1564 1564 1564 1564 1564 1564 1564 1564 1564 1565
1505 1507 1508 1509 1510 1511 1513 1513 1514 1515 1516 1517 1518 1519 1520 1522 1522 1523 1524 1525 1526 1527 1528 1529 1530 1531 1532 1533 1534 1535 1536 1537 1538 1539 1540 1540 1541 1542 1542 1543 1544 1544 1545 1545 1546 1547 1548 1548 1549 1549 1550 1550 1550 1551 1551 1551 1552 1552 1552 1553 1553 1554 1555 1555 1556 1556 1556 1556 1556 1557 1557 1557 1558 1558 1559 1559 1560 1560 1560 1561 1561 1561 1562 1562 1562 1562 1563 1563 1563 1563 1564 1564 1564 1564 1564 1564 1564 1564 1564 1564 1565 1565 1565
1505 1506 1508 1509 1510 1511 1513 1513 1514 1515 1515 1517 1518 1519 1520 1521 1522 1523 1524 1525 1525 1526 1527 1528 1530 1530 1531 1533 1534 1535 1536 1537 1538 1539 1540 1540 1541 1542 1543 1543 1544 1544 1545 1545 1546 1547 1547 1548 1549 1549 1550 1550 1550 1550 1551 1551 1552 1552 1552 1553 1553 1554 1554 1555 1556 1557 1557 1557 1557 1557 1557 1557 1558 1558 1559 1559 1560 1560 1560 1561 1561 1561 1562 1563 1563 1563 1563 1563 1563 1564 1564 1564 1564 1564 1564 1564 1564 1564 1564 1564 1565 1565 1565
1505 1506 1507 1508 1510 1510 1511 1513 1514 1514 1515 1516 1517 1519 1520 1521 1522 1522 1523 1524 1525 1526 1527 1528 1529 1530 1531 1532 1533 1535 1535 1537 1538 1539 1540 1540 1541 1542 1543 1543 1544 1544 1545 1545 1546 1546 1547 1548 1548 1549 1549 1550 1550 1550 1551 1551 1551 1552 1552 1552 1553 1553 1554 1555 1556 1557 1557 1557 1557 1557 1557 1558 1558 1559 1559 1559 1560 1560 1561 1561 1561 1562 1562 1562 1562 1562 1563 1563 1563 1564 1564 1564 1564 1564 1564 1564 1565 1565 1565 1565 1565 1565 1565
1505 1505 1507 1508 1509 1510 1510 1511 1513 1514 1515 1516 1517 1518 1519 1520 1521 1522 1523 1524 1525 1526 1527 1528 1529 1530 1531 1532 1533 1534 1535 1536 1537 1538 1539 1540 1541 1542 1542 1543 1544 1544 1545 1545 1546 1546 1547 1548 1548 1549 1549 1550 1550 1550 1550 1551 1551 1552 1552 1552 1553 1553 1554 1554 1555 1556 1557 1557 1557 1557 1558 1558 1559 1559 1560 1560 1560 1560 1561 1561 1561 1562 1562 1562 1562 1562 1563 1563 1564 1564 1564 1564 1564 1565 1565 1565 1565 1565 1565 1565 1565 1565 1565
1504 1505 1506 1506 1507 1509 1510 1511 1512 1513 1514 1515 1516 1518 1519 1520 1521 1522 1522 1523 1524 1525 1526 1527 1528 1529 1530 1532 1533 1534 1535 1536 1537 1538 1539 1540 1540 1541 1542 1543 1544 1544 1545 1545 1546 1546 1547 1547 1548 1549 1549 1549 1550 1550 1550 1551 1551 1551 1552 1552 1552 1553 1553 1554 1555 1555 1556 1557 1558 1558 1558 1558 1559 1559 1560 1560 1560 1561 1561 1561 1562 1562 1563 1562 1562 1562 1563 1564 1565 1565 1565 1565 1565 1565 1565 1565 1565 1565 1565 1565 1565 1565 1565
1503 1504 1505 1505 1506 1508 1509 1510 1511 1512 1512 1514 1515 1516 1518 1519 1520 1521 1522 1523 1524 1525 1525 1526 1528 1529 1530 1531 1532 1533 1535 1535 1537 1538 1539 1540 1540 1541 1542 1543 1543 1544 1545 1545 1546 1546 1547 1547 1548 1549 1549 1549 1550 1550 1550 1550 1551 1551 1551 1552 1552 1553 1553 1553 1554 1555 1556 1557 1557 1558 1558 1559 1559 1559 1560 1560 1560 1561 1561 1561 1562 1563 1563 1563 1562 1562 1563 1563 1564 1564 1564 1564 1564 1565 1565 1565 1565 1565 1565 1565 1565 1565 1565
1502 1504 1504 1505 1505 1507 1508 1510 1510 1511 1512 1513 1514 1515 1516 1517 1518 1520 1521 1522 1523 1524 1525 1526 1527 1528 1530 1531 1532 1533 1534 1535 1536 1537 1539 1539 1540 1541 1542 1542 1543 1544 1545 1545 1546 1546 1547 1547 1548 1549 1549 1549 1550 1550 1550 1550 1551 1551 1551 1552 1552 1552 1553 1553 1553 1554 1555 1556 1557 1557 1558 1558 1559 1559 1560 1560 1560 1560 1561 1561 1562 1562 1563 1563 1563 1563 1563 1563 1564 1564 1564 1564 1564 1564 1565 1565 1565 1565 1565 1565 1565 1565 1565
1501 1503 1504 1504 1504 1506 1507 1508 1509 1510 1511 1512 1514 1515 1516 1516 1517 1519 1520 1522 1523 1524 1525 1526 1527 1528 1529 1530 1532 1533 1534 1535 1536 1537 1538 1539 1540 1541 1541 1542 1543 1544 1544 1545 1545 1546 1547 1547 1548 1548 1549 1549 1549 1550 1550 1550 1550 1551 1551 1551 1552 1552 1553 1553 1554 1554 1555 1556 1556 1557 1557 1558 1558 1559 1559 1560 1560 1560 1561 1561 1562 1562 1562 1562 1562 1563 1563 1563 1564 1564 1564 1564 1564 1564 1564 1565 1565 1565 1565 1565 1565 1566 1566
1500 1502 1503 1504 1504 1505 1505 1507 1508 1509 1510 1512 1514 1515 1515 1516 1517 1519 1520 1521 1522 1523 1525 1525 1527 1528 1529 1530 1531 1532 1533 1535 1536 1537 1538 1539 1540 1540 1541 1542 1543 1543 1544 1544 1545 1546 1546 1547 1548 1548 1549 1549 1549 1549 1550 1550 1550 1550 1551 1551 1551 1552 1552 1553 1554 1554 1555 1556 1556 1557 1557 1558 1558 1559 1559 1559 1560 1560 1560 1560 1561 1561 1561 1562 1562 1562 1563 1563 1563 1563 1564 1564 1564 1564 1564 1564 1565 1565 1565 1565 1565 1566 1566
1500 1501 1502 1503 1504 1504 1505 1506 1507 1509 1510 1511 1513 1514 1515 1516 1517 1518 1519 1520 1521 1523 1524 1525 1526 1527 1529 1530 1531 1532 1533 1534 1535 1536 1537 1538 1539 1540 1541 1541 1542 1543 1543 1544 1545 1545 1546 1547 1547 1548 1548 1549 1549 1549 1550 1550 1550 1550 1550 1551 1551 1552 1552 1553 1553 1554 1555 1555 1556 1556 1557 1558 1558 1558 1559 1559 1559 1560 1560 1560 1560 1561 1561 1561 1562 1562 1563 1563 1563 1563 1564 1564 1564 1564 1564 1564 1565 1565 1565 1565 1565 1565 1565
1499 1500 1501 1502 1503 1504 1505 1506 1507 1508 1510 1510 1512 1513 1515 1515 1516 1517 1518 1519 1520 1522 1523 1525 1526 1527 1528 1529 1530 1531 1532 1534 1535 1536 1537 1538 1539 1540 1540 1541 1542 1543 1543 1544 1544 1545 1546 1546 1547 1548 1548 1548 1549 1549 1549 1549 1549 1550 1550 1550 1551 1551 1552 1552 1553 1554 1554 1555 1555 1556 1556 1557 1557 1557 1557 1558 1558 1559 1560 1560 1560 1561 1561 1561 1562 1562 1563 1563 1564 1564 1564 1564 1564 1564 1564 1565 1565 1565 1565 1565 1565 1565 1565
1498 1498 1499 1500 1502 1503 1505 1506 1507 1508 1509 1510 1510 1512 1514 1515 1515 1516 1516 1517 1519 1521 1523 1524 1525 1526 1527 1528 1530 1530 1532 1533 1534 1535 1536 1537 1538 1540 1540 1541 1542 1543 1543 1544 1544 1545 1545 1546 1547 1547 1548 1548 1548 1548 1548 1548 1549 1549 1549 1550 1550 1551 1552 1552 1553 1554 1554 1555 1555 1555 1555 1556 1556 1556 1556 1556 1557 1558 1558 1559 1560 1560 1560 1561 1561 1562 1562 1562 1563 1563 1564 1564 1564 1564 1564 1564 1564 1564 1564 1565 1565 1565 1565
1496 1497 1498 1499 1500 1502 1504 1505 1506 1507 1508 1509 1510 1511 1512 1513 1514 1515 1515 1516 1518 1520 1521 1523 1524 1525 1527 1528 1529 1530 1531 1532 1533 1534 1535 1537 1538 1540 1541 1541 1542 1542 1543 1543 1544 1545 1545 1546 1546 1547 1548 1548 1548 1548 1548 1547 1548 1548 1549 1549 1550 1550 1551 1552 1553 1554 1554 1554 1554 1554 1555 1555 1555 1556 1556 1556 1557 1557 1558 1558 1559 1559 1560 1560 1561 1561 1562 1562 1562 1562 1563 1563 1563 1563 1563 1563 1563 1564 1564 1564 1564 1564 1564
1496 1496 1497 1499 1500 1501 1502 1504 1505 1506 1507 1508 1510 1511 1512 1513 1513 1514 1515 1516 1517 1518 1520 1521 1523 1524 1526 1527 1528 1529 1530 1532 1533 1534 1535 1537 1538 1539 1540 1541 1542 1542 1542 1543 1543 1544 1545 1545 1546 1547 1547 1547 1548 1548 1547 1547 1547 1548 1548 1548 1549 1550 1551 1552 1553 1553 1554 1553 1553 1553 1554 1555 1555 1555 1556 1556 1556 1557 1557 1558 1558 1559 1559 1560 1560 1561 1561 1562 1562 1562 1562 1562 1563 1563 1563 1563 1563 1563 1563 1563 1564 1564 1564
1495 1496 1497 1499 1500 1501 1502 1503 1505 1506 1507 1508 1510 1511 1512 1512 1513 1513 1514 1515 1516 1518 1520 1521 1522 1524 1525 1526 1528 1529 1530 1531 1532 1534 1535 1537 1538 1539 1540 1540 1541 1541 1541 1542 1543 1544 1545 1545 1546 1546 1547 1547 1547 1546 1546 1547 1547 1548 1548 1548 1548 1549 1550 1550 1551 1552 1552 1552 1553 1553 1554 1554 1555 1555 1555 1555 1556 1556 1557 1557 1558 1558 1559 1560 1560 1560 1561 1561 1562 1562 1562 1562 1562 1562 1562 1562 1562 1563 1563 1563 1563 1563 1563
1496 1497 1498 1498 1499 1501 1502 1503 1504 1505 1506 1508 1510 1510 1511 1512 1512 1512 1513 1515 1516 1518 1520 1521 1522 1523 1524 1525 1526 1528 1529 1530 1531 1533 1535 1536 1537 1538 1539 1540 1540 1540 1541 1542 1543 1544 1545 1545 1546 1546 1546 1546 1546 1546 1546 1546 1547 1547 1547 1547 1547 1548 1548 1549 1550 1550 1551 1552 1552 1553 1554 1554 1554 1555 1555 1555 1555 1555 1556 1557 1557 1558 1559 1559 1560 1560 1561 1561 1561 1561 1562 1562 1562 1562 1562 1562 1562 1562 1562 1563 1563 1563 1563
1497 1499 1499 1499 1500 1501 1502 1503 1504 1504 1505 1507 1509 1510 1511 1511 1511 1511 1512 1514 1515 1517 1519 1520 1522 1523 1524 1525 1525 1527 1528 1529 1530 1532 1534 1535 1536 1537 1538 1539 1539 1540 1541 1542 1543 1544 1544 1545 1545 1546 1546 1546 1547 1547 1546 1545 1546 1547 1547 1547 1547 1547 1548 1549 1549 1550 1551 1551 1552 1553 1553 1554 1554 1555 1555 1555 1555 1555 1556 1556 1557 1558 1558 1559 1560 1560 1560 1561 1561 1561 1561 1561 1561 1561 1561 1561 1562 1562 1562 1562 1562 1563 1562
1497 1499 1499 1500 1501 1502 1502 1502 1502 1503 1504 1505 1507 1509 1510 1510 1510 1510 1511 1513 1515 1516 1518 1520 1521 1522 1524 1524 1525 1526 1527 1528 1529 1531 1533 1534 1536 1537 1538 1539 1540 1540 1541 1542 1543 1544 1544 1545 1546 1546 1547 1547 1548 1547 1546 1546 1547 1547 1546 1546 1546 1547 1548 1549 1549 1550 1550 1551 1552 1552 1553 1553 1554 1554 1555 1555 1555 1555 1555 1556 1557 1557 1558 1559 1559 1560 1560 1560 1560 1561 1561 1561 1561 1561 1561 1561 1561 1561 1562 1562 1562 1562 1562
1496 1497 1498 1499 1500 1500 1500 1501 1502 1502 1503 1505 1506 1508 1509 1510 1510 1510 1511 1513 1514 1515 1517 1519 1521 1522 1523 1524 1525 1526 1527 1528 1529 1530 1532 1534 1535 1537 1539 1539 1540 1540 1541 1543 1543 1544 1545 1545 1546 1547 1547 1547 1547 1547 1546 1547 1546 1545 1545 1545 1546 1547 1548 1548 1549 1550 1550 1550 1551 1551 1552 1552 1553 1553 1554 1554 1555 1555 1555 1556 1556 1557 1558 1558 1559 1559 1560 1560 1560 1560 1561 1561 1561 1561 1561 1561 1561 1561 1561 1562 1562 1562 1562
1496 1496 1496 1497 1498 1498 1499 1500 1501 1502 1503 1505 1506 1508 1509 1510 1510 1511 1512 1513 1514 1515 1517 1519 1520 1522 1522 1523 1524 1526 1527 1528 1529 1530 1532 1533 1535 1537 1538 1539 1540 1540 1541 1542 1543 1544 1544 1545 1546 1547 1547 1547 1547 1546 1546 1546 1545 1544 1544 1545 1545 1546 1547 1547 1548 1549 1550 1550 1550 1550 1551 1551 1552 1552 1553 1553 1554 1555 1555 1555 1556 1557 1558 1558 1559 1559 1560 1560 1560 1560 1560 1560 1560 1560 1560 1561 1561 1561 1561 1562 1562 1561 1561
1496 1497 1495 1495 1495 1496 1496 1497 1499 1502 1504 1506 1507 1508 1509 1510 1510 1511 1512 1513 1514 1516 1517 1519 1520 1522 1523 1523 1524 1526 1527 1528 1530 1531 1533 1533 1534 1535 1537 1539 1540 1540 1540 1542 1543 1543 1543 1544 1545 1546 1547 1547 1546 1546 1545 1544 1543 1543 1543 1544 1545 1545 1546 1547 1547 1548 1549 1549 1550 1550 1550 1550 1551 1551 1552 1553 1553 1554 1555 1555 1556 1557 1558 1558 1559 1559 1559 1559 1560 1560 1560 1560 1560 1560 1560 1560 1560 1561 1561 1561 1562 1561 1561
1496 1497 1496 1495 1494 1494 1495 1495 1497 1500 1504 1506 1508 1509 1509 1510 1510 1510 1511 1512 1514 1515 1518 1520 1521 1523 1524 1524 1525 1526 1528 1529 1530 1532 1533 1533 1533 1534 1535 1537 1539 1539 1540 1541 1542 1543 1542 1543 1544 1545 1545 1545 1545 1545 1544 1543 1543 1543 1543 1543 1544 1545 1545 1546 1547 1547 1548 1548 1549 1549 1549 1550 1550 1551 1551 1552 1553 1554 1555 1555 1556 1557 1557 1558 1558 1558 1559 1559 1559 1560 1560 1560 1560 1560 1559 1560 1560 1560 1559 1560 1560 1560 1561
1495 1496 1496 1495 1495 1495 1495 1495 1497 1500 1503 1505 1507 1509 1509 1509 1510 1510 1510 1512 1514 1517 1519 1521 1523 1523 1524 1525 1526 1527 1529 1530 1531 1532 1533 1533 1533 1533 1535 1536 1537 1538 1539 1540 1541 1542 1542 1542 1543 1543 1544 1544 1543 1543 1543 1542 1542 1542 1543 1543 1543 1544 1545 1545 1546 1547 1547 1548 1548 1548 1549 1549 1550 1550 1551 1551 1552 1553 1554 1555 1555 1556 1557 1557 1557 1558 1559 1559 1559 1559 1559 1560 1560 1560 1560 1560 1560 1559 1559 1559 1560 1560 1560
1494 1495 1496 1496 1497 1497 1497 1497 1498 1500 1502 1504 1506 1508 1509 1509 1510 1510 1511 1513 1516 1519 1522 1523 1524 1524 1524 1525 1526 1527 1529 1530 1531 1532 1533 1532 1532 1533 1534 1536 1537 1537 1538 1538 1540 1541 1541 1541 1541 1541 1541 1542 1541 1541 1541 1542 1542 1542 1542 1543 1543 1543 1544 1545 1545 1546 1547 1547 1548 1548 1548 1549 1549 1550 1550 1551 1552 1553 1554 1554 1555 1556 1556 1557 1557 1558 1559 1559 1558 1558 1559 1559 1560 1560 1561 1560 1560 1559 1558 1559 1559 1559 1559
1494 1495 1495 1496 1497 1498 1498 1499 1500 1501 1502 1503 1505 1507 1510 1510 1511 1512 1513 1515 1518 1521 1522 1523 1524 1524 1524 1525 1525 1527 1529 1530 1532 1532 1532 1531 1531 1532 1534 1535 1536 1537 1537 1538 1539 1540 1540 1540 1539 1539 1539 1539 1540 1540 1540 1541 1541 1542 1542 1542 1542 1543 1544 1544 1545 1545 1546 1546 1547 1548 1548 1548 1549 1550 1550 1551 1552 1553 1554 1554 1555 1555 1555 1556 1557 1558 1558 1558 1558 1558 1558 1559 1559 1560 1561 1561 1560 1559 1558 1558 1558 1559 1559
1494 1495 1496 1496 1496 1496 1498 1499 1500 1502 1503 1504 1505 1506 1509 1511 1512 1514 1515 1517 1519 1520 1521 1522 1523 1524 1524 1524 1525 1526 1528 1529 1531 1531 1531 1530 1531 1533 1534 1535 1536 1537 1538 1538 1538 1538 1538 1538 1538 1538 1538 1538 1538 1539 1539 1540 1540 1541 1541 1541 1541 1542 1543 1544 1545 1545 1545 1546 1546 1547 1547 1548 1549 1549 1550 1551 1552 1552 1553 1554 1555 1555 1555 1555 1556 1557 1557 1557 1557 1558 1558 1558 1559 1560 1560 1560 1560 1560 1559 1559 1559 1559 1559
1494 1495 1496 1496 1496 1496 1496 1498 1500 1502 1503 1505 1506 1507 1508 1510 1512 1514 1516 1517 1519 1520 1520 1521 1522 1522 1523 1524 1524 1525 1526 1528 1530 1530 1531 1531 1532 1533 1535 1535 1536 1536 1537 1538 1538 1537 1537 1537 1537 1537 1537 1537 1538 1538 1539 1539 1539 1540 1540 1540 1541 1542 1543 1544 1544 1545 1545 1545 1546 1546 1547 1547 1548 1549 1550 1550 1551 1552 1552 1553 1554 1554 1554 1555 1556 1556 1556 1557 1557 1558 1558 1558 1558 1559 1559 1559 1560 1560 1559 1559 1559 1559 1559
1495 1495 1495 1496 1496 1496 1496 1497 1498 1500 1503 1505 1506 1507 1509 1510 1512 1514 1516 1517 1518 1519 1519 1520 1521 1521 1522 1523 1524 1525 1526 1528 1529 1530 1531 1532 1533 1534 1535 1535 1535 1536 1536 1537 1537 1537 1537 1537 1537 1537 1537 1537 1537 1537 1538 1538 1538 1538 1539 1540 1540 1541 1542 1543 1544 1545 1545 1545 1545 1546 1546 1547 1548 1549 1549 1550 1550 1551 1551 1552 1553 1553 1554 1555 1555 1555 1555 1556 1557 1557 1558 1558 1558 1558 1558 1557 1557 1557 1557 1557 1558 1558 1558
1496 1495 1495 1496 1496 1496 1496 1497 1498 1500 1501 1503 1505 1506 1508 1510 1512 1515 1516 1516 1516 1517 1519 1519 1520 1520 1521 1522 1523 1525 1526 1527 1528 1530 1530 1531 1532 1533 1534 1534 1535 1535 1535 1536 1537 1537 1537 1536 1536 1536 1537 1537 1537 1537 1537 1537 1537 1538 1538 1539 1540 1541 1542 1543 1543 1544 1545 1545 1545 1546 1546 1546 1547 1548 1549 1550 1550 1550 1550 1551 1552 1553 1553 1554 1554 1555 1555 1556 1556 1556 1557 1557 1557 1557 1557 1556 1556 1556 1556 1556 1557 1557 1558
1496 1496 1496 1496 1497 1497 1498 1498 1499 1500 1501 1503 1504 1505 1506 1508 1511 1514 1515 1516 1516 1517 1517 1518 1519 1519 1520 1520 1522 1523 1525 1526 1527 1528 1529 1529 1530 1531 1532 1533 1534 1535 1535 1536 1536 1536 1535 1535 1535 1536 1536 1536 1536 1536 1536 1536 1537 1537 1538 1539 1540 1540 1541 1542 1543 1544 1544 1545 1545 1545 1546 1546 1547 1548 1548 1549 1549 1549 1550 1551 1551 1552 1552 1553 1554 1554 1555 1555 1555 1555 1556 1556 1557 1557 1556 1556 1556 1556 1555 1556 1556 1557 1557
1497 1498 1498 1498 1499 1499 1499 1500 1500 1501 1502 1503 1504 1505 1506 1509 1510 1512 1514 1515 1515 1516 1516 1517 1517 1518 1518 1519 1520 1522 1523 1525 1526 1527 1527 1528 1529 1530 1531 1532 1533 1534 1535 1535 1535 1535 1534 1534 1535 1535 1535 1535 1535 1536 1536 1536 1537 1537 1538 1538 1539 1540 1541 1541 1542 1543 1544 1545 1545 1545 1545 1546 1546 1547 1547 1548 1548 1549 1550 1550 1551 1551 1551 1552 1553 1554 1554 1554 1555 1555 1555 1556 1557 1557 1557 1556 1556 1556 1556 1556 1556 1556 1557
1497 1498 1499 1499 1500 1500 1500 1501 1501 1501 1502 1503 1504 1506 1508 1510 1511 1512 1513 1514 1515 1515 1515 1516 1516 1517 1517 1518 1519 1520 1521 1523 1524 1525 1526 1527 1527 1528 1530 1530 1531 1532 1533 1533 1533 1533 1532 1533 1534 1534 1534 1534 1535 1535 1536 1536 1536 1537 1537 1538 1539 1540 1540 1541 1542 1543 1544 1544 1545 1545 1545 1545 1546 1546 1547 1547 1548 1548 1549 1550 1550 1551 1551 1552 1552 1553 1553 1553 1554 1554 1555 1555 1556 1556 1556 1556 1556 1556 1556 1556 1556 1556 1556
1497 1498 1498 1499 1500 1500 1500 1501 1501 1501 1501 1502 1504 1507 1509 1510 1512 1513 1514 1514 1514 1514 1515 1515 1515 1516 1517 1517 1518 1519 1520 1521 1522 1523 1524 1525 1526 1527 1528 1529 1530 1531 1531 1531 1531 1531 1531 1531 1532 1532 1532 1533 1535 1535 1536 1536 1536 1536 1537 1537 1538 1539 1540 1541 1542 1542 1543 1544 1545 1545 1545 1545 1545 1546 1546 1547 1547 1548 1549 1549 1550 1550 1551 1551 1551 1552 1552 1552 1553 1553 1554 1554 1555 1555 1555 1556 1556 1555 1555 1556 1556 1556 1556
1496 1497 1497 1498 1499 1500 1500 1501 1502 1502 1503 1503 1504 1506 1509 1510 1512 1513 1513 1514 1513 1514 1514 1514 1515 1516 1516 1517 1518 1519 1520 1520 1521 1522 1524 1525 1525 1526 1527 1528 1529 1530 1530 1530 1530 1529 1529 1530 1530 1530 1531 1532 1534 1535 1535 1536 1536 1536 1536 1537 1537 1538 1539 1540 1541 1542 1543 1544 1544 1545 1545 1545 1545 1545 1545 1546 1546 1547 1548 1548 1549 1549 1550 1550 1550 1551 1551 1551 1552 1552 1553 1553 1554 1554 1555 1555 1555 1555 1555 1555 1555 1555 1555
1495 1495 1495 1496 1497 1499 1500 1501 1503 1504 1505 1505 1505 1506 1508 1510 1511 1512 1513 1513 1513 1513 1513 1514 1515 1516 1516 1517 1518 1519 1519 1520 1521 1522 1523 1524 1525 1525 1526 1527 1528 1528 1528 1528 1528 1528 1528 1529 1529 1529 1530 1531 1532 1533 1534 1535 1535 1535 1536 1536 1537 1537 1538 1539 1540 1542 1542 1543 1543 1544 1544 1544 1544 1544 1545 1545 1546 1546 1547 1548 1548 1548 1549 1549 1550 1550 1550 1551 1551 1552 1552 1553 1553 1554 1554 1554 1555 1555 1555 1554 1555 1555 1555
1494 1494 1494 1495 1496 1498 1500 1502 1503 1505 1506 1507 1508 1508 1508 1508 1510 1510 1511 1512 1512 1512 1513 1514 1515 1516 1516 1517 1518 1518 1519 1520 1520 1521 1522 1523 1524 1525 1525 1526 1526 1527 1527 1527 1527 1527 1528 1528 1528 1529 1530 1530 1530 1531 1532 1533 1534 1535 1535 1535 1536 1537 1538 1539 1540 1541 1542 1542 1542 1543 1543 1543 1543 1544 1544 1545 1545 1546 1547 1547 1547 1548 1548 1548 1549 1550 1550 1551 1551 1551 1552 1552 1553 1553 1553 1553 1553 1554 1554 1554 1554 1554 1554